TimeEDT,TemperatureF,Dew PointF,Humidity,Sea Level PressureIn,VisibilityMPH,Wind Direction,Wind SpeedMPH,Gust SpeedMPH,PrecipitationIn,Events,Conditions,WindDirDegrees,DateUTC
12:53 AM,70.0,66.9,90,30.09,10.0,Calm,Calm,-,N/A,,Clear,0,2013-09-12 04:53:00
1:53 AM,70.0,66.9,90,30.08,10.0,Calm,Calm,-,N/A,,Clear,0,2013-09-12 05:53:00
2:53 AM,69.1,66.9,93,30.06,10.0,Calm,Calm,-,N/A,,Partly Cloudy,0,2013-09-12 06:53:00
3:53 AM,69.1,66.9,93,30.05,10.0,Calm,Calm,-,N/A,,Scattered Clouds,0,2013-09-12 07:53:00
4:53 AM,69.1,66.9,93,30.04,10.0,Calm,Calm,-,N/A,,Clear,0,2013-09-12 08:53:00
5:53 AM,68.0,66.0,93,30.04,9.0,Calm,Calm,-,N/A,,Clear,0,2013-09-12 09:53:00
6:53 AM,68.0,66.0,93,30.04,10.0,Calm,Calm,-,N/A,,Partly Cloudy,0,2013-09-12 10:53:00
7:53 AM,72.0,68.0,87,30.05,10.0,Calm,Calm,-,N/A,,Clear,0,2013-09-12 11:53:00
8:53 AM,77.0,71.1,82,30.04,10.0,Calm,Calm,-,N/A,,Clear,0,2013-09-12 12:53:00
9:53 AM,81.0,72.0,74,30.04,10.0,West,5.8,-,N/A,,Clear,260,2013-09-12 13:53:00
10:53 AM,84.9,69.1,59,30.03,10.0,Calm,Calm,-,N/A,,Clear,0,2013-09-12 14:53:00
11:53 AM,86.0,66.9,53,30.01,10.0,SW,5.8,-,N/A,,Clear,220,2013-09-12 15:53:00
12:53 PM,87.1,66.0,49,29.99,10.0,Variable,3.5,-,N/A,,Partly Cloudy,0,2013-09-12 16:53:00
1:53 PM,89.1,64.9,45,29.97,10.0,NNW,4.6,-,N/A,,Partly Cloudy,330,2013-09-12 17:53:00
2:53 PM,89.1,64.0,43,29.94,10.0,West,4.6,-,N/A,,Clear,280,2013-09-12 18:53:00
3:53 PM,86.0,68.0,55,29.91,10.0,SSE,9.2,-,N/A,,Scattered Clouds,160,2013-09-12 19:53:00
4:53 PM,87.1,68.0,53,29.88,10.0,South,10.4,-,N/A,,Scattered Clouds,180,2013-09-12 20:53:00
5:53 PM,84.9,66.9,55,29.87,10.0,South,9.2,-,N/A,,Clear,180,2013-09-12 21:53:00
6:53 PM,82.0,66.9,60,29.88,10.0,SSW,6.9,-,N/A,,Clear,200,2013-09-12 22:53:00
7:53 PM,79.0,66.0,64,29.88,10.0,SSW,5.8,-,N/A,,Clear,200,2013-09-12 23:53:00
8:53 PM,77.0,66.9,71,29.88,10.0,SSW,4.6,-,N/A,,Clear,210,2013-09-13 00:53:00
9:53 PM,77.0,68.0,74,29.87,10.0,SSW,5.8,-,N/A,,Clear,200,2013-09-13 01:53:00
10:53 PM,78.1,69.1,74,29.86,10.0,SSW,6.9,-,N/A,,Clear,200,2013-09-13 02:53:00
11:53 PM,77.0,69.1,76,29.85,10.0,SW,6.9,-,N/A,,Clear,220,2013-09-13 03:53:00